| time (UTC) | temp F | wind direction | speed MPH | gust MPH | rain 1hr in | rain 24hr in | rain mn in | humidity % | barometer mb |
| 20260502191028 | 55 | 324 | 3.0 | 10.0 | 0.00 | 0.00 | 0.00 | 43 | 1018.4 |
| 20260502190529 | 55 | 8 | 3.0 | 7.0 | 0.00 | 0.00 | 0.00 | 41 | 1018.5 |
| 20260502190044 | 56 | 23 | 2.0 | 6.0 | 0.00 | 0.00 | 0.00 | 49 | 1018.4 |
| 20260502185529 | 56 | 341 | 2.0 | 10.0 | 0.00 | 0.00 | 0.00 | 44 | 1018.6 |
| 20260502185029 | 54 | 86 | 2.0 | 10.0 | 0.00 | 0.00 | 0.00 | 49 | 1018.6 |
| 20260502184545 | 54 | 324 | 2.0 | 5.0 | 0.00 | 0.00 | 0.00 | 47 | 1018.7 |
| 20260502184030 | 54 | 316 | 2.0 | 6.0 | 0.00 | 0.00 | 0.00 | 46 | 1018.8 |
| 20260502183530 | 54 | 300 | 2.0 | 6.0 | 0.00 | 0.00 | 0.00 | 48 | 1018.9 |
| 20260502183045 | 53 | 47 | 3.0 | 6.0 | 0.00 | 0.00 | 0.00 | 47 | 1019.0 |
| 20260502182529 | 53 | 323 | 2.0 | 6.0 | 0.00 | 0.00 | 0.00 | 50 | 1019.0 |
| 20260502182028 | 53 | 15 | 2.0 | 7.0 | 0.00 | 0.00 | 0.00 | 50 | 1019.1 |
| 20260502181542 | 53 | 285 | 3.0 | 7.0 | 0.00 | 0.00 | 0.00 | 47 | 1019.1 |
| 20260502181028 | 54 | 296 | 2.0 | 8.0 | 0.00 | 0.00 | 0.00 | 48 | 1019.1 |
| 20260502180528 | 54 | 18 | 3.0 | 8.0 | 0.00 | 0.00 | 0.00 | 46 | 1019.2 |
| 20260502164028 | 52 | 288 | 2.0 | 7.0 | 0.00 | 0.00 | 0.00 | 50 | 1019.9 |
| 20260502163530 | 52 | 328 | 3.0 | 7.0 | 0.00 | 0.00 | 0.00 | 46 | 1019.8 |
| 20260502163042 | 53 | 1 | 1.0 | 7.0 | 0.00 | 0.00 | 0.00 | 50 | 1019.9 |
| 20260502162530 | 52 | 359 | 2.0 | 7.0 | 0.00 | 0.00 | 0.00 | 49 | 1020.0 |
| 20260502162027 | 52 | 243 | 2.0 | 7.0 | 0.00 | 0.00 | 0.00 | 51 | 1020.0 |
| 20260502161542 | 52 | 302 | 1.0 | 9.0 | 0.00 | 0.00 | 0.00 | 50 | 1020.2 |
| 20260502161030 | 51 | 50 | 2.0 | 9.0 | 0.00 | 0.00 | 0.00 | 50 | 1020.1 |
| 20260502160530 | 52 | 3 | 5.0 | 9.0 | 0.00 | 0.00 | 0.00 | 47 | 1020.2 |
| 20260502152028 | 51 | 240 | 1.0 | 6.0 | 0.00 | 0.00 | 0.00 | 55 | 1020.4 |
| 20260502151541 | 50 | 41 | 1.0 | 6.0 | 0.00 | 0.00 | 0.00 | 58 | 1020.2 |
| 20260502151031 | 49 | 282 | 2.0 | 6.0 | 0.00 | 0.00 | 0.00 | 53 | 1020.3 |
| 20260502150528 | 49 | 32 | 0.0 | 6.0 | 0.00 | 0.00 | 0.00 | 56 | 1020.2 |
| 20260502150104 | 49 | 350 | 3.0 | 6.0 | 0.00 | 0.00 | 0.00 | 50 | 1020.2 |
| 20260502130530 | 46 | 164 | 0.0 | 1.0 | 0.00 | 0.00 | 0.00 | 73 | 1020.0 |
| 20260502123530 | 42 | 0 | 0.0 | 0.0 | 0.00 | 0.00 | 0.00 | 95 | 1019.9 |
| 20260502123043 | 41 | 0 | 0.0 | 0.0 | 0.00 | 0.00 | 0.00 | 98 | 1019.9 |
| 20260502122528 | 40 | 0 | 0.0 | 0.0 | 0.00 | 0.00 | 0.00 | 98 | 1020.0 |
| 20260502122030 | 39 | 0 | 0.0 | 0.0 | 0.00 | 0.00 | 0.00 | 98 | 1020.0 |
| 20260502121541 | 37 | 0 | 0.0 | 0.0 | 0.00 | 0.00 | 0.00 | 98 | 1020.1 |
| 20260502121031 | 38 | 0 | 0.0 | 0.0 | 0.00 | 0.00 | 0.00 | 98 | 1019.9 |
| 20260502120530 | 35 | 0 | 0.0 | 0.0 | 0.00 | 0.00 | 0.00 | 98 | 1019.9 |
| 20260502115531 | 30 | 0 | 0.0 | 0.0 | 0.00 | 0.00 | 0.00 | 97 | 1019.8 |
| 20260502115031 | 30 | 0 | 0.0 | 0.0 | 0.00 | 0.00 | 0.00 | 97 | 1019.8 |
| 20260502114543 | 29 | 0 | 0.0 | 0.0 | 0.00 | 0.00 | 0.00 | 97 | 1019.7 |
| 20260502114030 | 29 | 0 | 0.0 | 0.0 | 0.00 | 0.00 | 0.00 | 97 | 1019.6 |
| 20260502113530 | 29 | 0 | 0.0 | 0.0 | 0.00 | 0.00 | 0.00 | 96 | 1019.6 |
| 20260502113055 | 28 | 0 | 0.0 | 0.0 | 0.00 | 0.00 | 0.00 | 96 | 1019.5 |
| 20260502112530 | 28 | 0 | 0.0 | 0.0 | 0.00 | 0.00 | 0.00 | 96 | 1019.5 |
| 20260502112033 | 28 | 0 | 0.0 | 0.0 | 0.00 | 0.00 | 0.00 | 96 | 1019.4 |
| 20260502111546 | 28 | 0 | 0.0 | 0.0 | 0.00 | 0.00 | 0.00 | 96 | 1019.5 |
| 20260502111029 | 28 | 0 | 0.0 | 0.0 | 0.00 | 0.00 | 0.00 | 96 | 1019.4 |
| 20260502110532 | 28 | 0 | 0.0 | 0.0 | 0.00 | 0.00 | 0.00 | 96 | 1019.4 |
| 20260502110046 | 28 | 0 | 0.0 | 0.0 | 0.00 | 0.00 | 0.00 | 96 | 1019.4 |
| 20260502105531 | 28 | 0 | 0.0 | 0.0 | 0.00 | 0.00 | 0.00 | 96 | 1019.4 |
| 20260502105033 | 28 | 0 | 0.0 | 0.0 | 0.00 | 0.00 | 0.00 | 96 | 1019.4 |
| 20260502104538 | 28 | 0 | 0.0 | 0.0 | 0.00 | 0.00 | 0.00 | 96 | 1019.4 |
| 20260502104031 | 28 | 0 | 0.0 | 0.0 | 0.00 | 0.00 | 0.00 | 96 | 1019.4 |
| 20260502103532 | 28 | 0 | 0.0 | 0.0 | 0.00 | 0.00 | 0.00 | 96 | 1019.3 |
| 20260502103106 | 28 | 0 | 0.0 | 0.0 | 0.00 | 0.00 | 0.00 | 96 | 1019.3 |
| 20260502102527 | 28 | 0 | 0.0 | 0.0 | 0.00 | 0.00 | 0.00 | 96 | 1019.3 |
| 20260502102030 | 28 | 0 | 0.0 | 0.0 | 0.00 | 0.00 | 0.00 | 96 | 1019.2 |
| 20260502101549 | 28 | 0 | 0.0 | 0.0 | 0.00 | 0.00 | 0.00 | 95 | 1019.2 |
| 20260502101029 | 28 | 0 | 0.0 | 0.0 | 0.00 | 0.00 | 0.00 | 95 | 1019.3 |
| 20260502100529 | 28 | 0 | 0.0 | 0.0 | 0.00 | 0.00 | 0.00 | 95 | 1019.2 |
| 20260502091030 | 29 | 0 | 0.0 | 0.0 | 0.00 | 0.00 | 0.00 | 95 | 1019.2 |
| 20260502090528 | 29 | 0 | 0.0 | 0.0 | 0.00 | 0.00 | 0.00 | 95 | 1019.2 |
| 20260502071032 | 31 | 0 | 0.0 | 0.0 | 0.00 | 0.00 | 0.00 | 92 | 1019.2 |
| 20260502070530 | 31 | 0 | 0.0 | 0.0 | 0.00 | 0.00 | 0.00 | 92 | 1019.1 |
| 20260502070042 | 31 | 0 | 0.0 | 0.0 | 0.00 | 0.00 | 0.00 | 92 | 1019.2 |
| 20260502065530 | 32 | 0 | 0.0 | 0.0 | 0.00 | 0.00 | 0.00 | 92 | 1019.3 |
| 20260502065029 | 32 | 0 | 0.0 | 0.0 | 0.00 | 0.00 | 0.00 | 92 | 1019.3 |
| 20260502064543 | 32 | 0 | 0.0 | 0.0 | 0.00 | 0.00 | 0.00 | 91 | 1019.4 |
| 20260502064029 | 32 | 0 | 0.0 | 0.0 | 0.00 | 0.00 | 0.00 | 91 | 1019.5 |
| 20260502063529 | 32 | 0 | 0.0 | 0.0 | 0.00 | 0.00 | 0.00 | 91 | 1019.3 |
| 20260502063048 | 32 | 0 | 0.0 | 0.0 | 0.00 | 0.00 | 0.00 | 91 | 1019.4 |
| 20260502062529 | 32 | 0 | 0.0 | 0.0 | 0.00 | 0.00 | 0.00 | 91 | 1019.5 |
| 20260502062031 | 32 | 0 | 0.0 | 0.0 | 0.00 | 0.00 | 0.00 | 91 | 1019.6 |
| 20260502061539 | 32 | 0 | 0.0 | 0.0 | 0.00 | 0.00 | 0.00 | 90 | 1019.5 |
| 20260502061029 | 32 | 0 | 0.0 | 0.0 | 0.00 | 0.00 | 0.00 | 90 | 1019.6 |
| 20260502060530 | 32 | 0 | 0.0 | 0.0 | 0.00 | 0.00 | 0.00 | 90 | 1019.6 |
| 20260502060044 | 32 | 0 | 0.0 | 0.0 | 0.00 | 0.00 | 0.00 | 89 | 1019.7 |
| 20260502055531 | 33 | 0 | 0.0 | 0.0 | 0.00 | 0.00 | 0.00 | 89 | 1019.5 |
| 20260502055031 | 33 | 0 | 0.0 | 0.0 | 0.00 | 0.00 | 0.00 | 89 | 1019.6 |
| 20260502054551 | 33 | 0 | 0.0 | 0.0 | 0.00 | 0.00 | 0.00 | 89 | 1019.7 |
| 20260502054030 | 33 | 0 | 0.0 | 0.0 | 0.00 | 0.00 | 0.00 | 89 | 1019.7 |
| 20260502053529 | 33 | 0 | 0.0 | 0.0 | 0.00 | 0.00 | 0.00 | 89 | 1019.7 |
| 20260502053046 | 33 | 0 | 0.0 | 0.0 | 0.00 | 0.00 | 0.00 | 89 | 1019.7 |
| 20260502052529 | 33 | 0 | 0.0 | 0.0 | 0.00 | 0.00 | 0.00 | 88 | 1019.7 |
| 20260502052029 | 33 | 0 | 0.0 | 0.0 | 0.00 | 0.00 | 0.00 | 88 | 1019.8 |
| 20260502051535 | 33 | 0 | 0.0 | 0.0 | 0.00 | 0.00 | 0.00 | 88 | 1019.8 |
| 20260502051029 | 33 | 0 | 0.0 | 0.0 | 0.00 | 0.00 | 0.00 | 87 | 1019.7 |
| 20260502050529 | 33 | 0 | 0.0 | 0.0 | 0.00 | 0.00 | 0.00 | 87 | 1019.8 |
| 20260502050044 | 33 | 0 | 0.0 | 0.0 | 0.00 | 0.00 | 0.00 | 87 | 1019.8 |
| 20260502045529 | 33 | 0 | 0.0 | 0.0 | 0.00 | 0.00 | 0.00 | 86 | 1019.8 |
| 20260502045031 | 34 | 0 | 0.0 | 0.0 | 0.00 | 0.00 | 0.00 | 86 | 1019.8 |
| 20260502044541 | 34 | 0 | 0.0 | 0.0 | 0.00 | 0.00 | 0.00 | 86 | 1019.7 |
| 20260502044029 | 34 | 0 | 0.0 | 0.0 | 0.00 | 0.00 | 0.00 | 85 | 1019.9 |
| 20260502043529 | 34 | 0 | 0.0 | 0.0 | 0.00 | 0.00 | 0.00 | 85 | 1019.8 |
| 20260502043043 | 34 | 0 | 0.0 | 0.0 | 0.00 | 0.00 | 0.00 | 84 | 1019.7 |
| 20260502042529 | 34 | 0 | 0.0 | 0.0 | 0.00 | 0.00 | 0.00 | 83 | 1019.6 |
| 20260502042030 | 34 | 0 | 0.0 | 0.0 | 0.00 | 0.00 | 0.00 | 83 | 1019.6 |
| 20260502041539 | 35 | 0 | 0.0 | 0.0 | 0.00 | 0.00 | 0.00 | 82 | 1019.6 |
| 20260502041029 | 35 | 0 | 0.0 | 0.0 | 0.00 | 0.00 | 0.00 | 82 | 1019.6 |
| 20260502040530 | 35 | 0 | 0.0 | 0.0 | 0.00 | 0.00 | 0.00 | 81 | 1019.5 |
| 20260502040046 | 36 | 0 | 0.0 | 0.0 | 0.00 | 0.00 | 0.00 | 81 | 1019.5 |
| 20260502035529 | 36 | 0 | 0.0 | 0.0 | 0.00 | 0.00 | 0.00 | 80 | 1019.5 |
| 20260502035029 | 37 | 0 | 0.0 | 0.0 | 0.00 | 0.00 | 0.00 | 80 | 1019.4 |
| 20260502034541 | 37 | 0 | 0.0 | 0.0 | 0.00 | 0.00 | 0.00 | 80 | 1019.5 |
| 20260502034029 | 37 | 0 | 0.0 | 1.0 | 0.00 | 0.00 | 0.00 | 79 | 1019.3 |
| 20260502033529 | 38 | 0 | 0.0 | 1.0 | 0.00 | 0.00 | 0.00 | 79 | 1019.3 |
| 20260502033044 | 38 | 0 | 0.0 | 1.0 | 0.00 | 0.00 | 0.00 | 78 | 1019.3 |
| 20260502032529 | 38 | 0 | 0.0 | 1.0 | 0.00 | 0.00 | 0.00 | 78 | 1019.2 |
| 20260502032029 | 38 | 0 | 0.0 | 1.0 | 0.00 | 0.00 | 0.00 | 77 | 1019.3 |
| 20260502031542 | 38 | 0 | 0.0 | 3.0 | 0.00 | 0.00 | 0.00 | 77 | 1019.2 |
| 20260502031029 | 39 | 0 | 0.0 | 3.0 | 0.00 | 0.00 | 0.00 | 76 | 1019.3 |
| 20260502030529 | 39 | 112 | 0.0 | 2.0 | 0.00 | 0.00 | 0.00 | 76 | 1019.2 |
| 20260502030044 | 39 | 297 | 0.0 | 7.0 | 0.00 | 0.00 | 0.00 | 76 | 1019.2 |
| 20260502025529 | 39 | 15 | 0.0 | 7.0 | 0.00 | 0.00 | 0.00 | 75 | 1019.1 |
| 20260502025029 | 39 | 11 | 1.0 | 7.0 | 0.00 | 0.00 | 0.00 | 75 | 1019.1 |
| 20260502024544 | 39 | 49 | 0.0 | 4.0 | 0.00 | 0.00 | 0.00 | 75 | 1019.1 |
| 20260502024029 | 39 | 115 | 0.0 | 3.0 | 0.00 | 0.00 | 0.00 | 76 | 1019.1 |
| 20260502023529 | 40 | 91 | 0.0 | 2.0 | 0.00 | 0.00 | 0.00 | 76 | 1018.9 |
| 20260502023043 | 40 | 103 | 0.0 | 3.0 | 0.00 | 0.00 | 0.00 | 76 | 1018.9 |
| 20260502022530 | 40 | 0 | 0.0 | 4.0 | 0.00 | 0.00 | 0.00 | 75 | 1018.9 |
| 20260502022029 | 40 | 72 | 1.0 | 4.0 | 0.00 | 0.00 | 0.00 | 75 | 1018.7 |
| 20260502021543 | 40 | 108 | 0.0 | 3.0 | 0.00 | 0.00 | 0.00 | 76 | 1018.7 |
| 20260502021029 | 40 | 129 | 1.0 | 3.0 | 0.00 | 0.00 | 0.00 | 76 | 1018.8 |
| 20260502020529 | 40 | 105 | 0.0 | 4.0 | 0.00 | 0.00 | 0.00 | 76 | 1018.6 |
| 20260502020043 | 41 | 124 | 1.0 | 5.0 | 0.00 | 0.00 | 0.00 | 75 | 1018.3 |
| 20260502015529 | 41 | 102 | 1.0 | 6.0 | 0.00 | 0.01 | 0.00 | 75 | 1018.4 |
| 20260502015029 | 41 | 101 | 2.0 | 7.0 | 0.00 | 0.01 | 0.00 | 74 | 1018.3 |
| 20260502014536 | 41 | 106 | 2.0 | 7.0 | 0.00 | 0.01 | 0.00 | 74 | 1018.3 |
| 20260502014029 | 42 | 264 | 1.0 | 7.0 | 0.00 | 0.01 | 0.00 | 75 | 1018.1 |
| 20260502013529 | 42 | 126 | 2.0 | 7.0 | 0.00 | 0.01 | 0.00 | 75 | 1018.0 |
| 20260502013036 | 42 | 125 | 0.0 | 7.0 | 0.00 | 0.01 | 0.00 | 75 | 1017.9 |
| 20260502012529 | 42 | 158 | 2.0 | 7.0 | 0.00 | 0.01 | 0.00 | 75 | 1017.7 |
| 20260502012030 | 42 | 102 | 1.0 | 7.0 | 0.00 | 0.01 | 0.00 | 75 | 1017.6 |
| 20260502011543 | 42 | 287 | 0.0 | 5.0 | 0.00 | 0.01 | 0.00 | 76 | 1017.5 |
| 20260502011029 | 43 | 129 | 1.0 | 5.0 | 0.00 | 0.01 | 0.00 | 76 | 1017.5 |
| 20260502010529 | 43 | 56 | 1.0 | 5.0 | 0.00 | 0.01 | 0.00 | 76 | 1017.3 |
| 20260502010052 | 43 | 125 | 1.0 | 5.0 | 0.00 | 0.01 | 0.00 | 76 | 1017.3 |
| 20260502005530 | 44 | 128 | 1.0 | 5.0 | 0.00 | 0.01 | 0.00 | 76 | 1017.2 |
| 20260502005029 | 44 | 98 | 0.0 | 5.0 | 0.00 | 0.01 | 0.00 | 76 | 1017.2 |
| 20260502004543 | 44 | 129 | 2.0 | 7.0 | 0.00 | 0.01 | 0.00 | 75 | 1017.2 |
| 20260502004029 | 44 | 125 | 2.0 | 7.0 | 0.00 | 0.01 | 0.00 | 75 | 1017.3 |
| 20260502003528 | 45 | 112 | 1.0 | 5.0 | 0.00 | 0.01 | 0.00 | 75 | 1017.1 |
| 20260502003042 | 45 | 130 | 1.0 | 5.0 | 0.00 | 0.01 | 0.00 | 74 | 1017.0 |
| 20260502002528 | 45 | 103 | 0.0 | 2.0 | 0.00 | 0.01 | 0.00 | 74 | 1017.1 |
| 20260502002029 | 46 | 141 | 0.0 | 4.0 | 0.00 | 0.01 | 0.00 | 73 | 1017.1 |
| 20260502001544 | 46 | 301 | 0.0 | 4.0 | 0.00 | 0.01 | 0.00 | 73 | 1017.0 |
| 20260502001030 | 47 | 130 | 1.0 | 4.0 | 0.00 | 0.01 | 0.00 | 72 | 1016.7 |
| 20260502000529 | 47 | 92 | 0.0 | 6.0 | 0.00 | 0.01 | 0.00 | 72 | 1016.8 |
| 20260502000043 | 47 | 115 | 2.0 | 7.0 | 0.00 | 0.01 | 0.00 | 71 | 1016.7 |
| 20260501235529 | 47 | 109 | 3.0 | 7.0 | 0.00 | 0.01 | 0.00 | 70 | 1017.0 |
| 20260501235029 | 48 | 124 | 1.0 | 5.0 | 0.00 | 0.01 | 0.00 | 69 | 1016.9 |
| 20260501234538 | 48 | 122 | 1.0 | 5.0 | 0.00 | 0.01 | 0.00 | 69 | 1017.0 |
| 20260501234029 | 48 | 62 | 0.0 | 5.0 | 0.00 | 0.01 | 0.00 | 70 | 1016.9 |
| 20260501233529 | 48 | 114 | 2.0 | 5.0 | 0.00 | 0.01 | 0.00 | 69 | 1016.8 |
| 20260501233052 | 48 | 85 | 1.0 | 5.0 | 0.00 | 0.01 | 0.00 | 70 | 1016.8 |
| 20260501232528 | 47 | 108 | 1.0 | 5.0 | 0.00 | 0.01 | 0.00 | 71 | 1016.8 |
| 20260501232028 | 47 | 115 | 2.0 | 5.0 | 0.00 | 0.01 | 0.00 | 69 | 1016.8 |
| 20260501231544 | 47 | 12 | 1.0 | 4.0 | 0.00 | 0.01 | 0.00 | 70 | 1016.8 |
| 20260501231029 | 47 | 112 | 2.0 | 5.0 | 0.00 | 0.01 | 0.00 | 69 | 1016.9 |
| 20260501230529 | 48 | 117 | 0.0 | 6.0 | 0.00 | 0.01 | 0.00 | 70 | 1016.8 |
| 20260501230043 | 48 | 100 | 3.0 | 6.0 | 0.00 | 0.01 | 0.00 | 69 | 1016.9 |
| 20260501225530 | 48 | 100 | 2.0 | 6.0 | 0.00 | 0.04 | 0.00 | 68 | 1017.0 |
| 20260501225029 | 49 | 96 | 2.0 | 6.0 | 0.00 | 0.04 | 0.00 | 68 | 1017.0 |
| 20260501224543 | 49 | 117 | 0.0 | 3.0 | 0.00 | 0.04 | 0.00 | 68 | 1016.8 |
| 20260501224033 | 49 | 0 | 1.0 | 3.0 | 0.00 | 0.04 | 0.00 | 67 | 1017.0 |
| 20260501223529 | 50 | 131 | 0.0 | 3.0 | 0.00 | 0.04 | 0.00 | 66 | 1017.0 |
| 20260501223041 | 50 | 0 | 0.0 | 3.0 | 0.00 | 0.04 | 0.00 | 67 | 1017.0 |
| 20260501222529 | 50 | 107 | 0.0 | 3.0 | 0.00 | 0.04 | 0.00 | 65 | 1017.0 |
| 20260501222029 | 50 | 0 | 1.0 | 4.0 | 0.00 | 0.04 | 0.00 | 59 | 1017.0 |
| 20260501221543 | 50 | 41 | 1.0 | 4.0 | 0.00 | 0.04 | 0.00 | 59 | 1017.0 |
| 20260501221033 | 50 | 330 | 1.0 | 4.0 | 0.00 | 0.04 | 0.00 | 58 | 1017.0 |
| 20260501220530 | 50 | 312 | 0.0 | 2.0 | 0.00 | 0.04 | 0.00 | 60 | 1017.0 |
| 20260501220046 | 50 | 346 | 1.0 | 3.0 | 0.00 | 0.04 | 0.00 | 59 | 1017.0 |
| 20260501215531 | 50 | 299 | 1.0 | 3.0 | 0.00 | 0.10 | 0.00 | 56 | 1017.0 |
| 20260501215030 | 50 | 329 | 1.0 | 5.0 | 0.00 | 0.10 | 0.00 | 57 | 1017.0 |
| 20260501214543 | 50 | 288 | 1.0 | 6.0 | 0.00 | 0.10 | 0.00 | 59 | 1017.0 |
| 20260501214029 | 50 | 311 | 2.0 | 6.0 | 0.00 | 0.10 | 0.00 | 57 | 1016.9 |
| 20260501213529 | 50 | 359 | 3.0 | 6.0 | 0.00 | 0.10 | 0.00 | 56 | 1017.0 |
| 20260501213045 | 50 | 16 | 2.0 | 6.0 | 0.00 | 0.10 | 0.00 | 56 | 1016.8 |
| 20260501212529 | 50 | 53 | 2.0 | 6.0 | 0.00 | 0.10 | 0.00 | 56 | 1017.0 |
| 20260501212029 | 50 | 343 | 2.0 | 6.0 | 0.00 | 0.10 | 0.00 | 56 | 1017.0 |
| 20260501211551 | 50 | 330 | 2.0 | 6.0 | 0.00 | 0.10 | 0.00 | 57 | 1017.0 |
| 20260501211029 | 50 | 1 | 2.0 | 6.0 | 0.00 | 0.10 | 0.00 | 56 | 1016.9 |
| 20260501210528 | 50 | 340 | 1.0 | 4.0 | 0.00 | 0.10 | 0.00 | 56 | 1016.8 |
| 20260501210043 | 50 | 274 | 1.0 | 6.0 | 0.00 | 0.10 | 0.00 | 56 | 1016.8 |
| 20260501205531 | 50 | 332 | 2.0 | 6.0 | 0.00 | 0.11 | 0.00 | 55 | 1016.8 |
| 20260501205029 | 51 | 297 | 2.0 | 8.0 | 0.00 | 0.11 | 0.00 | 54 | 1016.8 |
| 20260501204555 | 51 | 349 | 2.0 | 8.0 | 0.00 | 0.11 | 0.00 | 53 | 1016.9 |
| 20260501204028 | 51 | 37 | 2.0 | 7.0 | 0.00 | 0.11 | 0.00 | 53 | 1016.8 |
| 20260501203528 | 52 | 32 | 3.0 | 6.0 | 0.00 | 0.11 | 0.00 | 54 | 1016.8 |
| 20260501203055 | 52 | 0 | 1.0 | 7.0 | 0.00 | 0.11 | 0.00 | 55 | 1016.8 |
| 20260501202529 | 51 | 23 | 3.0 | 7.0 | 0.00 | 0.11 | 0.00 | 55 | 1016.8 |
| 20260501202029 | 51 | 169 | 3.0 | 6.0 | 0.00 | 0.11 | 0.00 | 54 | 1016.8 |
| 20260501201544 | 52 | 250 | 1.0 | 8.0 | 0.00 | 0.11 | 0.00 | 54 | 1017.0 |
| 20260501201029 | 52 | 323 | 4.0 | 8.0 | 0.00 | 0.11 | 0.00 | 54 | 1017.0 |
| 20260501200528 | 52 | 49 | 2.0 | 7.0 | 0.00 | 0.11 | 0.00 | 54 | 1016.8 |
| 20260501200045 | 52 | 317 | 1.0 | 6.0 | 0.00 | 0.11 | 0.00 | 55 | 1016.8 |
| 20260501195529 | 52 | 308 | 4.0 | 6.0 | 0.00 | 0.11 | 0.00 | 51 | 1016.9 |
| 20260501195032 | 52 | 320 | 2.0 | 5.0 | 0.00 | 0.11 | 0.00 | 55 | 1016.8 |
| 20260501194543 | 51 | 346 | 2.0 | 8.0 | 0.00 | 0.11 | 0.00 | 55 | 1016.8 |
| 20260501194028 | 51 | 335 | 3.0 | 8.0 | 0.00 | 0.11 | 0.00 | 53 | 1016.8 |
| 20260501193530 | 51 | 330 | 3.0 | 8.0 | 0.00 | 0.11 | 0.00 | 52 | 1016.8 |
| 20260501193048 | 51 | 313 | 3.0 | 7.0 | 0.00 | 0.11 | 0.00 | 52 | 1016.8 |
| 20260501192530 | 51 | 15 | 4.0 | 7.0 | 0.00 | 0.11 | 0.00 | 51 | 1016.8 |
| 20260501192028 | 51 | 29 | 2.0 | 6.0 | 0.00 | 0.11 | 0.00 | 54 | 1016.7 |
| 20260501191542 | 52 | 297 | 2.0 | 6.0 | 0.00 | 0.11 | 0.00 | 52 | 1016.8 |